Main page
METAR-TAF:

METAR-TAF

Airports :

Iowa City Municipal Airport

Iowa City, Iowa, United States

latitude: 41-37-58N, longitude: 091-32-35W, elevation: 666 ft

Current weather observation

The report was made 33 minutes ago, at 06:52 UTC
Wind 5 mph from the South/Southeast
Temperature 64°F
Humidity 73%
Pressure 29.79 in. Hg
Visibility: 10 miles
Clear sky

METAR: KIOW 240652Z AUTO 15004KT 10SM CLR 18/13 A2979 RMK AO2 SLP083 T01780133

Time: 02:25 (07:25 UTC)


TAF: missing

Weather observations and forecasts of more than 4000 airports (METAR and TAF reports).

The available stations are represented by yellow and red dots on the map.

Hover mouse over dot to see the name of the station.

Then click to see weather observations and forecasts.

To change the map : click on the green buttons with a black cross to zoom in, on the green button with a dash to zoom out, or on the green arrows for adjacent maps.


METAR-TAF: